Preview of NWS' New Version of Forecast
This preview is not operational and should not be used for support decisions.

Regional Weather Roundup (RWR)

Issued by National Weather Service (NWS)

                            
000
ASUS43 KLSX 181057
RWRMO 

WEATHER SUMMARY FOR MISSOURI
NATIONAL WEATHER SERVICE SPRINGFIELD MO
600 AM CDT THU APR 18 2019

NOTE: "FAIR" INDICATES FEW OR NO CLOUDS BELOW 12,000 FEET WITH NO
       SIGNIFICANT WEATHER AND/OR OBSTRUCTIONS TO VISIBILITY.
       CURRENT SKY AND/OR WEATHER CONDITIONS ARE NOT AVAILABLE FOR
       CHILLICOTHE AND FARMINGTON.

MOZ001>031-035>038-043-044-053-054-181200-
...NORTHERN AND WESTERN MISSOURI...
  
CITY           SKY/WX    TMP DP  RH WIND       PRES   REMARKS
KANSAS CTY INT MOCLDY    47  41  80 N16       29.75F                  
LEE'S SUMMIT   CLOUDY    48  42  80 N15G24    29.73F                  
ST JOSEPH      CLOUDY    48  42  80 N16G25    29.77F                  
CHILLICOTHE      N/A     47  40  76 NW12G20   29.71F                  
     
$$
MOZ066>068-077>081-088>096-101>105-181200-
...SOUTHWEST MISSOURI...
  
CITY           SKY/WX    TMP DP  RH WIND       PRES   REMARKS
SPRINGFIELD    CLOUDY    58  55  90 N8        29.66R                  
JOPLIN         CLOUDY    56  54  93 N16G22    29.70R                  
               
$$
MOZ032>034-039>042-045>050-055>058-069>072-181200-
...CENTRAL MISSOURI...  
  
CITY           SKY/WX    TMP DP  RH WIND       PRES   REMARKS
COLUMBIA       NOT AVBL                                               
JEFFERSON CITY CLOUDY    57  54  89 NW10      29.65R                  
ROLLA          CLOUDY    59  56  89 VRB5      29.61F                  
SEDALIA        CLOUDY    49  48  97 N14       29.70R                  
WARRENSBURG    CLOUDY    50  45  81 NW10G16   29.72R                  
               
$$
MOZ051-052-059>065-181200-
...EAST CENTRAL MISSOURI...
  
CITY           SKY/WX    TMP DP  RH WIND       PRES   REMARKS
ST LOUIS INTL  LGT RAIN  63  59  87 W10       29.56F                  
                   
$$
MOZ072>076-082>087-097>100-106>115-181200-
...SOUTH CENTRAL AND SOUTHEAST MISSOURI...
  
CITY           SKY/WX    TMP DP  RH WIND       PRES   REMARKS
CAPE GIRARDEAU RAIN      63  60  90 S8        29.71R                  
POPLAR BLUFF   LGT RAIN  62  62 100 SE10      29.66F FOG              
WEST PLAINS    CLOUDY    60  57  89 VRB3      29.63F                  
                                       
$$